This is the latest recevied weather packets stored in our database for station/object IW1QLH-13. If no packets are shown the sender has not sent any weather packets the latest 10 day(s).
| Time | Temp. | Humidity | Pressure | Rain* | Wind** | Luminosity | Snow |
|---|---|---|---|---|---|---|---|
| 1777707243 | 22.78° C | 40% | 1018.4 hPa | - | - | 300 W/m² | - |
| 1777706611 | 21.67° C | 42% | 1018.5 hPa | - | - | 228 W/m² | - |
| 1777705977 | 21.67° C | 43% | 1018.5 hPa | - | - | 214 W/m² | - |
| 1777705348 | 20° C | 47% | 1018.5 hPa | - | - | 143 W/m² | - |
| 1777704718 | 18.89° C | 51% | 1018.4 hPa | - | - | 114 W/m² | - |
| 1777704089 | 18.89° C | 52% | 1018.4 hPa | - | - | 85 W/m² | - |
| 1777703457 | 17.78° C | 52% | 1018.4 hPa | - | - | 71 W/m² | - |
| 1777702827 | 16.67° C | 57% | 1018.3 hPa | - | - | 42 W/m² | - |
| 1777702134 | 15° C | 62% | 1018.3 hPa | - | - | 42 W/m² | - |
| 1777701504 | 15° C | 61% | 1018.4 hPa | - | - | 42 W/m² | - |
| 1777700875 | 12.78° C | 68% | 1018.4 hPa | - | - | 42 W/m² | - |
| 1777700246 | 11.67° C | 71% | 1018.2 hPa | - | - | 28 W/m² | - |
| 1777699617 | 11.67° C | 72% | 1018.3 hPa | - | - | 28 W/m² | - |
| 1777698987 | 11.67° C | 72% | 1018.3 hPa | - | - | 28 W/m² | - |
| 1777698357 | 10.56° C | 73% | 1018.3 hPa | - | - | 14 W/m² | - |
| 1777697727 | 11.67° C | 72% | 1018.1 hPa | - | - | 28 W/m² | - |
| 1777697096 | 10.56° C | 74% | 1018.2 hPa | - | - | 14 W/m² | - |
| 1777696467 | 10.56° C | 75% | 1018.2 hPa | - | - | 14 W/m² | - |
| 1777695837 | 10.56° C | 74% | 1018.2 hPa | - | - | 14 W/m² | - |
| 1777695208 | 10.56° C | 75% | 1018.1 hPa | - | - | 14 W/m² | - |
| 1777694579 | 10.56° C | 76% | 1018.1 hPa | - | - | 14 W/m² | - |
| 1777693950 | 10.56° C | 76% | 1018.1 hPa | - | - | - | - |
| 1777693321 | 10.56° C | 74% | 1018 hPa | - | - | 14 W/m² | - |
| 1777692689 | 10.56° C | 73% | 1018 hPa | - | - | - | - |
| 1777692056 | 10.56° C | 74% | 1018.1 hPa | - | - | - | - |
* Rain since midnight (hover to see other rain measurements)
** Current wind speed in m/s (hover to see current wind gust speed)